{"data":{"norad_id":66067,"epoch":"2026-09-20T14:05:07.133568Z","epoch_age_seconds":95493,"freshness":"FRESH","line1":"1 66067U 25235K   26263.58688812  .00017854  00000+0  53821-3 0  9993","line2":"2 66067  53.1611  56.9774 0001984  91.4408 268.6822 15.34404139 52779","mean_motion":15.34404139,"eccentricity":0.0001984,"inclination_deg":53.1611,"raan_deg":56.9774,"arg_perigee_deg":91.4408,"mean_anomaly_deg":268.6822,"bstar":0.00053821,"rev_number":5277,"period_min":93.847504930381,"perigee_km":461.33371799155,"apogee_km":464.04815851745,"semimajor_km":6840.8279382545,"source":"CELESTRAK","updated_at":"2026-09-21T09:00:35.795606Z"}}